Вернуться в каталог

USA 339

АктивенВоенныеGEO
NORAD 54220·PAYLOAD·🇺🇸 United States

Запущен Nov 1, 2022 с Cape Canaveral Space Force Station

Loading…

TLE

СвежийSource: Mike McCants

Эпоха: Sep 15, 2026, 07:03 UTC

1 54220U 22144B   26258.29378806  .00000000  00000-0  00000-0 0    05
2 54220   1.1737  83.6287 0004554 184.0233 175.9844  0.99101780  2653

Отслеживайте USA 339 в реальном времени с AllMySat

Download on the App Store